When you browse on this site, cookies collect data to enhance your experience and personalize the content and advertising you see.
Visit our Privacy Policy to learn more. By continuing to use the site, you agree to this use of cookies and data.
  • In Spain
  • List of Countries
  • For 7 days
  • Water Temperature
  • Satellite Maps
  • Weather Map
  • Weather Widgets
  • user-avatar
    Login

    Hourly Weather Valbom

    Today, 19 February, Tuesday

    Time Temperature Precipitation Wind Pressure Humidity
    00:00 +9°C° 0 mm 3 mps 764 mmHg 80%
    01:00 +8°C° 0 mm 2 mps 764 mmHg 80%
    02:00 +8°C° 0 mm 2 mps 763 mmHg 81%
    03:00 +7°C° 0 mm 2 mps 763 mmHg 80%
    04:00 +7°C° 0 mm 2 mps 763 mmHg 80%
    05:00 +7°C° 0 mm 2 mps 763 mmHg 80%
    06:00 +9°C° 0 mm 1 mps 763 mmHg 77%
    07:00 +9°C° 0 mm 1 mps 763 mmHg 73%
    08:00 +10°C° 0 mm 1 mps 763 mmHg 70%
    09:00 +12°C° 0 mm 1 mps 763 mmHg 62%
    10:00 +14°C° 0 mm 1 mps 763 mmHg 55%
    11:00 +16°C° 0 mm 1 mps 763 mmHg 47%
    12:00 +16°C° 0 mm 1 mps 762 mmHg 45%
    13:00 +16°C° 0 mm 2 mps 762 mmHg 42%
    14:00 +16°C° 0 mm 3 mps 762 mmHg 40%
    15:00 +15°C° 0 mm 2 mps 762 mmHg 45%
    16:00 +13°C° 0 mm 2 mps 762 mmHg 51%
    17:00 +12°C° 0 mm 2 mps 762 mmHg 56%
    18:00 +10°C° 0 mm 2 mps 762 mmHg 61%
    19:00 +10°C° 0 mm 1 mps 763 mmHg 66%
    20:00 +10°C° 0 mm 1 mps 763 mmHg 70%
    21:00 +9°C° 0 mm 1 mps 763 mmHg 71%
    22:00 +8°C° 0 mm 0 mps 763 mmHg 72%
    23:00 +8°C° 0 mm 0 mps 764 mmHg 72%

    Tomorrow, 20 February, Wednesday

    Time Temperature Precipitation Wind Pressure Humidity
    00:00 +7°C° 0 mm 0 mps 763 mmHg 72%
    01:00 +8°C° 0 mm 1 mps 763 mmHg 72%
    02:00 +8°C° 0 mm 1 mps 763 mmHg 72%
    03:00 +8°C° 0 mm 1 mps 763 mmHg 72%
    04:00 +8°C° 0 mm 1 mps 763 mmHg 71%
    05:00 +7°C° 0 mm 1 mps 763 mmHg 71%
    06:00 +8°C° 0 mm 1 mps 763 mmHg 68%
    07:00 +9°C° 0 mm 1 mps 764 mmHg 65%
    08:00 +10°C° 0 mm 1 mps 764 mmHg 63%
    09:00 +12°C° 0 mm 1 mps 764 mmHg 55%
    10:00 +14°C° 0 mm 2 mps 764 mmHg 48%
    11:00 +16°C° 0 mm 2 mps 764 mmHg 40%
    12:00 +16°C° 0 mm 2 mps 764 mmHg 41%
    13:00 +17°C° 0 mm 2 mps 764 mmHg 42%
    14:00 +17°C° 0 mm 3 mps 763 mmHg 42%
    15:00 +16°C° 0 mm 2 mps 763 mmHg 48%
    16:00 +15°C° 0 mm 1 mps 763 mmHg 54%
    17:00 +14°C° 0 mm 1 mps 764 mmHg 60%
    18:00 +13°C° 0 mm 1 mps 764 mmHg 63%
    19:00 +12°C° 0 mm 1 mps 764 mmHg 67%
    20:00 +12°C° 0 mm 1 mps 765 mmHg 70%
    21:00 +12°C° 0 mm 1 mps 765 mmHg 72%
    22:00 +10°C° 0 mm 2 mps 765 mmHg 75%
    23:00 +10°C° 0 mm 2 mps 765 mmHg 77%

    Day after tomorrow, 21 February, Thursday

    Time Temperature Precipitation Wind Pressure Humidity
    00:00 +10°C° 0 mm 2 mps 765 mmHg 78%
    01:00 +10°C° 0 mm 2 mps 765 mmHg 79%
    02:00 +10°C° 0 mm 2 mps 765 mmHg 80%
    03:00 +10°C° 0 mm 2 mps 765 mmHg 80%
    04:00 +10°C° 0 mm 3 mps 765 mmHg 79%
    05:00 +10°C° 0 mm 3 mps 765 mmHg 79%
    06:00 +10°C° 0 mm 3 mps 765 mmHg 76%
    07:00 +11°C° 0 mm 3 mps 766 mmHg 73%
    08:00 +12°C° 0 mm 3 mps 766 mmHg 70%
    09:00 +14°C° 0 mm 3 mps 766 mmHg 62%
    10:00 +17°C° 0 mm 4 mps 766 mmHg 54%
    11:00 +20°C° 0 mm 4 mps 766 mmHg 46%
    12:00 +20°C° 0 mm 4 mps 766 mmHg 43%
    13:00 +21°C° 0 mm 4 mps 766 mmHg 40%
    14:00 +21°C° 0 mm 4 mps 766 mmHg 37%
    15:00 +20°C° 0 mm 4 mps 766 mmHg 42%
    16:00 +19°C° 0 mm 3 mps 766 mmHg 47%
    17:00 +18°C° 0 mm 3 mps 766 mmHg 51%
    18:00 +17°C° 0 mm 3 mps 767 mmHg 55%
    19:00 +16°C° 0 mm 3 mps 767 mmHg 58%
    20:00 +14°C° 0 mm 3 mps 768 mmHg 62%
    21:00 +13°C° 0 mm 3 mps 768 mmHg 63%
    22:00 +13°C° 0 mm 3 mps 768 mmHg 64%
    23:00 +13°C° 0 mm 3 mps 768 mmHg 65%

    22 February, Friday

    Time Temperature Precipitation Wind Pressure Humidity
    00:00 +12°C° 0 mm 3 mps 768 mmHg 67%
    01:00 +12°C° 0 mm 3 mps 768 mmHg 68%
    02:00 +13°C° 0 mm 2 mps 768 mmHg 70%
    03:00 +11°C° 0 mm 3 mps 768 mmHg 69%
    04:00 +11°C° 0 mm 3 mps 768 mmHg 69%
    05:00 +11°C° 0 mm 3 mps 768 mmHg 69%
    06:00 +12°C° 0 mm 3 mps 768 mmHg 65%
    07:00 +12°C° 0 mm 3 mps 768 mmHg 60%
    08:00 +13°C° 0 mm 3 mps 768 mmHg 55%
    09:00 +16°C° 0 mm 3 mps 768 mmHg 48%
    10:00 +19°C° 0 mm 3 mps 768 mmHg 41%
    11:00 +21°C° 0 mm 4 mps 768 mmHg 34%
    12:00 +22°C° 0 mm 4 mps 767 mmHg 32%
    13:00 +22°C° 0 mm 4 mps 767 mmHg 30%
    14:00 +23°C° 0 mm 4 mps 766 mmHg 28%
    15:00 +22°C° 0 mm 4 mps 766 mmHg 33%
    16:00 +20°C° 0 mm 4 mps 766 mmHg 37%
    17:00 +19°C° 0 mm 3 mps 766 mmHg 41%
    18:00 +18°C° 0 mm 3 mps 766 mmHg 44%
    19:00 +17°C° 0 mm 3 mps 767 mmHg 47%
    20:00 +16°C° 0 mm 3 mps 767 mmHg 50%
    21:00 +14°C° 0 mm 3 mps 767 mmHg 51%
    22:00 +14°C° 0 mm 3 mps 767 mmHg 52%
    23:00 +13°C° 0 mm 4 mps 768 mmHg 53%

    23 February, Saturday

    Time Temperature Precipitation Wind Pressure Humidity
    00:00 +13°C° 0 mm 4 mps 767 mmHg 54%
    01:00 +13°C° 0 mm 4 mps 767 mmHg 54%
    02:00 +13°C° 0 mm 4 mps 767 mmHg 55%
    03:00 +13°C° 0 mm 3 mps 767 mmHg 56%
    04:00 +12°C° 0 mm 3 mps 767 mmHg 57%
    05:00 +13°C° 0 mm 2 mps 767 mmHg 58%
    06:00 +13°C° 0 mm 3 mps 768 mmHg 55%
    07:00 +13°C° 0 mm 3 mps 768 mmHg 53%
    08:00 +14°C° 0 mm 4 mps 768 mmHg 50%
    09:00 +17°C° 0 mm 3 mps 768 mmHg 45%
    10:00 +19°C° 0 mm 3 mps 769 mmHg 40%
    11:00 +21°C° 0 mm 2 mps 769 mmHg 35%
    12:00 +22°C° 0 mm 3 mps 768 mmHg 35%
    13:00 +22°C° 0 mm 3 mps 768 mmHg 34%
    14:00 +22°C° 0 mm 3 mps 768 mmHg 34%
    15:00 +20°C° 0 mm 3 mps 768 mmHg 40%
    16:00 +19°C° 0 mm 2 mps 769 mmHg 45%
    17:00 +19°C° 0 mm 1 mps 769 mmHg 51%
    18:00 +18°C° 0 mm 1 mps 769 mmHg 53%
    19:00 +16°C° 0 mm 1 mps 770 mmHg 55%
    20:00 +15°C° 0 mm 1 mps 770 mmHg 57%
    21:00 +15°C° 0 mm 1 mps 770 mmHg 58%
    22:00 +14°C° 0 mm 1 mps 770 mmHg 59%
    23:00 +14°C° 0 mm 1 mps 770 mmHg 59%

    24 February, Sunday

    Time Temperature Precipitation Wind Pressure Humidity
    00:00 +14°C° 0 mm 1 mps 770 mmHg 60%
    01:00 +13°C° 0 mm 1 mps 770 mmHg 60%
    02:00 +13°C° 0 mm 1 mps 770 mmHg 61%
    03:00 +13°C° 0 mm 1 mps 770 mmHg 61%
    04:00 +13°C° 0 mm 1 mps 770 mmHg 62%
    05:00 +12°C° 0 mm 2 mps 770 mmHg 62%
    06:00 +13°C° 0 mm 1 mps 771 mmHg 60%
    07:00 +14°C° 0 mm 1 mps 771 mmHg 58%
    08:00 +15°C° 0 mm 1 mps 771 mmHg 57%
    09:00 +18°C° 0 mm 1 mps 771 mmHg 51%
    10:00 +19°C° 0 mm 0 mps 771 mmHg 45%
    11:00 +21°C° 0 mm 0 mps 771 mmHg 39%
    12:00 +22°C° 0 mm 0 mps 771 mmHg 37%
    13:00 +24°C° 0 mm 1 mps 770 mmHg 36%
    14:00 +24°C° 0 mm 1 mps 769 mmHg 34%
    15:00 +23°C° 0 mm 1 mps 769 mmHg 39%
    16:00 +21°C° 0 mm 1 mps 769 mmHg 44%
    17:00 +19°C° 0 mm 2 mps 769 mmHg 49%
    18:00 +18°C° 0 mm 1 mps 770 mmHg 52%
    19:00 +16°C° 0 mm 1 mps 770 mmHg 55%
    20:00 +15°C° 0 mm 1 mps 771 mmHg 58%
    21:00 +15°C° 0 mm 1 mps 771 mmHg 59%
    22:00 +15°C° 0 mm 1 mps 771 mmHg 59%
    23:00 +14°C° 0 mm 1 mps 771 mmHg 60%
    Show more